Location: All Nations United Methodist Church
(33.0215°N, 96.7483°W)
Time: 15:20:45
(UTC+00:00)

Cosmos 1092 Rocket - Pass Details

Date: 24 January 2021
Orbit: 954 x 995 km, 83.0° (Epoch: 06 March)

Event Time Altitude Azimuth Distance (km) Brightness Sun altitude
Rises 12:02:08 0° 356° (N) 3,639 6.8 -17.8°
Reaches altitude 10° 12:04:39 10° 359° (N) 2,692 6.2 -17.3°
Maximum altitude 12:10:47 71° 83° (E) 1,017 4.3 -16.0°
Drops below altitude 10° 12:16:56 10° 167° (SSE) 2,700 6.7 -14.8°
Sets 12:19:27 0° 170° (S) 3,649 7.3 -14.3°
